Sara Borchard — V2BY8 — position and weather

sailwx.info

Track history (hours):
 
Tides and Currents Weather Stations Pressure Air Temp Water Temp Dewpoint Dewpoint Depression Visibility Wind Speed Wind Dir Waves Ship Positions

Sara Borchard

Last reported at 2014-Sep-29 16:33 UTC. Time now 2014-Oct-01 08:25 UTC.
Position N 34°11' E 033°12'.

Length 134 m; draft 8 m.

Type: Ship (hazmat cat A). MMSI: 304962000.

Date/timePositionNaut miles runAvg speedWind from/ knotsBaromVisibWave heightAir tempDewpointWater temp
2014-Sep-29 16:33N 34°11' E 033°12'1211.9
2014-Sep-29 15:33N 34°23' E 033°08'1211.7
2014-Sep-29 14:33N 34°34' E 033°05'6 5.5
2014-Sep-29 13:32N 34°39' E 033°01'0 0.0
2014-Sep-29 12:32N 34°39' E 033°01'0 0.0
2014-Sep-29 11:33N 34°39' E 033°01'0 0.0
2014-Sep-29 10:33N 34°39' E 033°01'0 0.0
2014-Sep-29 09:32N 34°39' E 033°01'2 1.7
2014-Sep-29 08:34N 34°39' E 033°03'10 9.5
2014-Sep-29 07:33N 34°31' E 032°57'1312.9
2014-Sep-29 06:33N 34°33' E 032°41'1413.4
2014-Sep-29 05:33N 34°35' E 032°25'  
2014-Sep-26 03:16N 41°59' E 010°23'4816.0
2014-Sep-26 00:17N 42°39' E 009°49'2916.6
2014-Sep-25 22:33N 43°06' E 009°37'1716.8
2014-Sep-25 21:33N 43°22' E 009°30'1717.1
2014-Sep-25 20:33N 43°38' E 009°21'1717.1
2014-Sep-25 19:33N 43°54' E 009°12'1717.0
2014-Sep-25 18:33N 44°10' E 009°03'1514.9
2014-Sep-25 17:33N 44°24' E 008°55'1 1.2
2014-Sep-25 16:33N 44°24' E 008°54'0 0.0
2014-Sep-25 15:32N 44°24' E 008°54'0 0.0
2014-Sep-25 14:29N 44°24' E 008°54'0 0.0
2014-Sep-25 13:28N 44°24' E 008°54'0 0.0
2014-Sep-25 12:28N 44°24' E 008°54'0 0.0
2014-Sep-25 11:31N 44°24' E 008°54'0 0.1
2014-Sep-25 10:33N 44°24' E 008°54'7 6.6
2014-Sep-25 09:33N 44°18' E 008°58'1312.6
2014-Sep-25 08:33N 44°10' E 008°46'1212.5
2014-Sep-25 07:33N 44°01' E 008°34'1312.4
2014-Sep-25 06:32N 43°52' E 008°21'3313.8
2014-Sep-25 04:08N 43°30' E 007°47'2514.0
2014-Sep-25 02:19N 43°12' E 007°21'1114.8
2014-Sep-25 01:33N 43°05' E 007°10'1515.4
2014-Sep-25 00:33N 42°54' E 006°54'1615.3
2014-Sep-24 23:33N 42°44' E 006°39'1413.9
2014-Sep-24 22:33N 42°45' E 006°20'1514.7
2014-Sep-24 21:34N 42°52' E 006°02'1414.1
2014-Sep-24 20:33N 42°57' E 005°44'1414.4
2014-Sep-24 19:33N 43°03' E 005°26'1514.4
2014-Sep-24 18:33N 43°10' E 005°09'1313.1
2014-Sep-24 17:33N 43°21' E 005°19'1 0.2
2014-Sep-24 11:23N 43°21' E 005°20'0 0.0
2014-Sep-24 10:33N 43°21' E 005°20'8 7.6
2014-Sep-24 09:33N 43°16' E 005°12'1010.2
2014-Sep-24 08:34N 43°07' E 005°07'1211.7
2014-Sep-24 07:33N 42°58' E 004°56'1212.3
2014-Sep-24 06:33N 42°48' E 004°45'1312.8
2014-Sep-24 05:33N 42°39' E 004°34'1313.3
2014-Sep-24 04:33N 42°29' E 004°22'1613.6
2014-Sep-24 03:22N 42°18' E 004°07'1113.2
2014-Sep-24 02:33N 42°11' E 003°55'1313.3
2014-Sep-24 01:33N 42°03' E 003°41'1913.7
2014-Sep-24 00:08N 41°51' E 003°20'5313.1
2014-Sep-23 20:06N 41°19' E 002°24'10 1.1
2014-Sep-23 11:23N 41°17' E 002°11'8 9.1
2014-Sep-23 10:33N 41°13' E 002°03'1916.4
2014-Sep-23 09:23N 41°02' E 001°41'1816.5
2014-Sep-23 08:19N 40°52' E 001°22'78 5.5
2014-Sep-22 18:10N 39°35' E 001°09'1016.3
2014-Sep-22 17:33N 39°31' E 001°21'1616.3
2014-Sep-22 16:33N 39°25' E 001°40'1616.3
2014-Sep-22 15:33N 39°19' E 001°60'1716.5
2014-Sep-22 14:33N 39°12' E 002°20'1716.7
2014-Sep-22 13:33N 39°06' E 002°39'1716.6
2014-Sep-22 12:33N 39°00' E 002°60'1716.7
2014-Sep-22 11:33N 38°56' E 003°20'1717.0
2014-Sep-22 10:33N 38°52' E 003°41'1716.9
2014-Sep-22 09:33N 38°48' E 004°02'1716.6
2014-Sep-22 08:30N 38°43' E 004°24'11916.8
2014-Sep-22 01:25N 38°15' E 006°52'6817.6
2014-Sep-21 21:33N 37°59' E 008°16'1817.8
2014-Sep-21 20:33N 37°54' E 008°38'1717.0
2014-Sep-21 19:33N 37°50' E 008°59'1716.7
2014-Sep-21 18:33N 37°46' E 009°19'5216.6
2014-Sep-21 15:26N 37°38' E 010°24'1517.1
2014-Sep-21 14:32N 37°35' E 010°43'1917.3
2014-Sep-21 13:28N 37°31' E 011°06'1617.8
2014-Sep-21 12:33N 37°22' E 011°23'2217.8
2014-Sep-21 11:19N 37°11' E 011°47'1517.2
2014-Sep-21 10:27N 37°04' E 012°03'1517.3
2014-Sep-21 09:33N 36°59' E 012°21'1717.4
2014-Sep-21 08:33N 36°54' E 012°42'1817.6
2014-Sep-21 07:33N 36°49' E 013°03'1817.6
2014-Sep-21 06:33N 36°43' E 013°24'1717.3
2014-Sep-21 05:33N 36°37' E 013°45'1111.2
2014-Sep-21 04:33N 36°33' E 013°58'1 0.8
2014-Sep-21 03:33N 36°34' E 013°57'1212.5
2014-Sep-21 02:34N 36°30' E 014°12'1616.4
2014-Sep-21 01:34N 36°25' E 014°31'1716.9
2014-Sep-21 00:33N 36°19' E 014°51'1716.8
2014-Sep-20 23:33N 36°13' E 015°10'1616.5
2014-Sep-20 22:33N 36°08' E 015°30'10316.8
2014-Sep-20 16:26N 35°31' E 017°27'  
Track history (hours):
 
Tides and Currents Weather Stations Pressure Air Temp Water Temp Dewpoint Dewpoint Depression Visibility Wind Speed Wind Dir Waves Ship Positions

Sara Borchard

Last reported at 2014-Sep-29 16:33 UTC. Time now 2014-Oct-01 08:25 UTC.
Position N 34°11' E 033°12'.

Length 134 m; draft 8 m.

Type: Ship (hazmat cat A). MMSI: 304962000.

Date/timePositionNaut miles runAvg speedWind from/ knotsBaromVisibWave heightAir tempDewpointWater temp
2014-Sep-29 16:33N 34°11' E 033°12'1211.9
2014-Sep-29 15:33N 34°23' E 033°08'1211.7
2014-Sep-29 14:33N 34°34' E 033°05'6 5.5
2014-Sep-29 13:32N 34°39' E 033°01'0 0.0
2014-Sep-29 12:32N 34°39' E 033°01'0 0.0
2014-Sep-29 11:33N 34°39' E 033°01'0 0.0
2014-Sep-29 10:33N 34°39' E 033°01'0 0.0
2014-Sep-29 09:32N 34°39' E 033°01'2 1.7
2014-Sep-29 08:34N 34°39' E 033°03'10 9.5
2014-Sep-29 07:33N 34°31' E 032°57'1312.9
2014-Sep-29 06:33N 34°33' E 032°41'1413.4
2014-Sep-29 05:33N 34°35' E 032°25'  
2014-Sep-26 03:16N 41°59' E 010°23'4816.0
2014-Sep-26 00:17N 42°39' E 009°49'2916.6
2014-Sep-25 22:33N 43°06' E 009°37'1716.8
2014-Sep-25 21:33N 43°22' E 009°30'1717.1
2014-Sep-25 20:33N 43°38' E 009°21'1717.1
2014-Sep-25 19:33N 43°54' E 009°12'1717.0
2014-Sep-25 18:33N 44°10' E 009°03'1514.9
2014-Sep-25 17:33N 44°24' E 008°55'1 1.2
2014-Sep-25 16:33N 44°24' E 008°54'0 0.0
2014-Sep-25 15:32N 44°24' E 008°54'0 0.0
2014-Sep-25 14:29N 44°24' E 008°54'0 0.0
2014-Sep-25 13:28N 44°24' E 008°54'0 0.0
2014-Sep-25 12:28N 44°24' E 008°54'0 0.0
2014-Sep-25 11:31N 44°24' E 008°54'0 0.1
2014-Sep-25 10:33N 44°24' E 008°54'7 6.6
2014-Sep-25 09:33N 44°18' E 008°58'1312.6
2014-Sep-25 08:33N 44°10' E 008°46'1212.5
2014-Sep-25 07:33N 44°01' E 008°34'1312.4
2014-Sep-25 06:32N 43°52' E 008°21'3313.8
2014-Sep-25 04:08N 43°30' E 007°47'2514.0
2014-Sep-25 02:19N 43°12' E 007°21'1114.8
2014-Sep-25 01:33N 43°05' E 007°10'1515.4
2014-Sep-25 00:33N 42°54' E 006°54'1615.3
2014-Sep-24 23:33N 42°44' E 006°39'1413.9
2014-Sep-24 22:33N 42°45' E 006°20'1514.7
2014-Sep-24 21:34N 42°52' E 006°02'1414.1
2014-Sep-24 20:33N 42°57' E 005°44'1414.4
2014-Sep-24 19:33N 43°03' E 005°26'1514.4
2014-Sep-24 18:33N 43°10' E 005°09'1313.1
2014-Sep-24 17:33N 43°21' E 005°19'1 0.2
2014-Sep-24 11:23N 43°21' E 005°20'0 0.0
2014-Sep-24 10:33N 43°21' E 005°20'8 7.6
2014-Sep-24 09:33N 43°16' E 005°12'1010.2
2014-Sep-24 08:34N 43°07' E 005°07'1211.7
2014-Sep-24 07:33N 42°58' E 004°56'1212.3
2014-Sep-24 06:33N 42°48' E 004°45'1312.8
2014-Sep-24 05:33N 42°39' E 004°34'1313.3
2014-Sep-24 04:33N 42°29' E 004°22'1613.6
2014-Sep-24 03:22N 42°18' E 004°07'1113.2
2014-Sep-24 02:33N 42°11' E 003°55'1313.3
2014-Sep-24 01:33N 42°03' E 003°41'1913.7
2014-Sep-24 00:08N 41°51' E 003°20'5313.1
2014-Sep-23 20:06N 41°19' E 002°24'10 1.1
2014-Sep-23 11:23N 41°17' E 002°11'8 9.1
2014-Sep-23 10:33N 41°13' E 002°03'1916.4
2014-Sep-23 09:23N 41°02' E 001°41'1816.5
2014-Sep-23 08:19N 40°52' E 001°22'78 5.5
2014-Sep-22 18:10N 39°35' E 001°09'1016.3
2014-Sep-22 17:33N 39°31' E 001°21'1616.3
2014-Sep-22 16:33N 39°25' E 001°40'1616.3
2014-Sep-22 15:33N 39°19' E 001°60'1716.5
2014-Sep-22 14:33N 39°12' E 002°20'1716.7
2014-Sep-22 13:33N 39°06' E 002°39'1716.6
2014-Sep-22 12:33N 39°00' E 002°60'1716.7
2014-Sep-22 11:33N 38°56' E 003°20'1717.0
2014-Sep-22 10:33N 38°52' E 003°41'1716.9
2014-Sep-22 09:33N 38°48' E 004°02'1716.6
2014-Sep-22 08:30N 38°43' E 004°24'11916.8
2014-Sep-22 01:25N 38°15' E 006°52'6817.6
2014-Sep-21 21:33N 37°59' E 008°16'1817.8
2014-Sep-21 20:33N 37°54' E 008°38'1717.0
2014-Sep-21 19:33N 37°50' E 008°59'1716.7
2014-Sep-21 18:33N 37°46' E 009°19'5216.6
2014-Sep-21 15:26N 37°38' E 010°24'1517.1
2014-Sep-21 14:32N 37°35' E 010°43'1917.3
2014-Sep-21 13:28N 37°31' E 011°06'1617.8
2014-Sep-21 12:33N 37°22' E 011°23'2217.8
2014-Sep-21 11:19N 37°11' E 011°47'1517.2
2014-Sep-21 10:27N 37°04' E 012°03'1517.3
2014-Sep-21 09:33N 36°59' E 012°21'1717.4
2014-Sep-21 08:33N 36°54' E 012°42'1817.6
2014-Sep-21 07:33N 36°49' E 013°03'1817.6
2014-Sep-21 06:33N 36°43' E 013°24'1717.3
2014-Sep-21 05:33N 36°37' E 013°45'1111.2
2014-Sep-21 04:33N 36°33' E 013°58'1 0.8
2014-Sep-21 03:33N 36°34' E 013°57'1212.5
2014-Sep-21 02:34N 36°30' E 014°12'1616.4
2014-Sep-21 01:34N 36°25' E 014°31'1716.9
2014-Sep-21 00:33N 36°19' E 014°51'1716.8
2014-Sep-20 23:33N 36°13' E 015°10'1616.5
2014-Sep-20 22:33N 36°08' E 015°30'10316.8
2014-Sep-20 16:26N 35°31' E 017°27'  

Dump ship's entire track history